Back to catalog

STARLINK-32336

AliveCommunicationsVLEO
NORAD 61004·PAYLOAD·🇺🇸 United States

Launched Sep 5, 2024 from Cape Canaveral Space Force Station

Loading…

Next Passes (next 24 hours)

TLE

FreshSource: CelesTrak SupGP

Epoch: Sep 15, 2026, 02:18 UTC

1 61004C 24158Q   26258.09631944 -.00008830  00000+0 -26122-3 0  2584
2 61004  53.1574 262.7252 0001192 104.4453 235.3561 15.34355805    13

Track STARLINK-32336 in real time with AllMySat

Download on the App Store